Location: *
(50.2903°S, 172.5375°W)
Time: 21:22:03
(UTC+00:00)

Resurs 1-4 Rocket - Pass Details

Date: 21 February 2020
Orbit: 800 x 814 km, 98.6° (Epoch: 09 April)

Event Time Altitude Azimuth Distance (km) Brightness Sun altitude
Exits shadow 11:12:04 35° 106° (ESE) 1,297 3.1 -28.7°
Maximum altitude 11:12:31 36° 117° (ESE) 1,283 3.2 -28.7°
Drops below altitude 10° 11:17:21 10° 181° (S) 2,423 5.5 -28.8°
Sets 11:19:52 0° 189° (S) 3,359 6.6 -28.8°
